Content
SEND FEEDBACK

Daily
Averages
Monthly
Summary
Ghana

ACCRA, GHANA


Home > Africa > Ghana
Elevation: 226 feet     Latitude: 05 36N     Longitude: 000 10W

WEATHER
 
SELECT A DAY
Number of Records: 90,705;   Date Range: 7/1/96 - 7/30/14
 
SHARE

PRINT THIS DATA

[ ← Previous Day ]
WEATHER ALMANAC - MAY 6, 2013
[ Next Day → ]
[ °C ]   °F
Weather ElementAverageHighLow
Temperature85.1 °F91.4 °F (11:30 am)78.8 °F (5:00 am)
Dewpoint75.5 °F77 °F (3:00 pm)73.4 °F (11:30 am)
Humidity73 %89 % (5:00 am)51 % (3:00 pm)
Barometer29.89 in29.95 in (9:00 am)29.83 in (2:30 pm)
Wind Speed9.2 mph15 mph (3:00 pm)
Weather ElementAverage
Visibility6.6 mi
Wind DirectionSSW (201.5 °)

Weather ElementTotal
Precipitation---
Cooling Degree Days20.1 (Base 65)
Growing Degree Days35.1 (Base 50)
Averaged from 33 records on May 6, 2013
WEATHER CONDITIONS BREAKOUT
WIND DIRECTION BREAKOUT
WEATHER BY HOUR - MAY 6, 2013
[ °C ]   °F
Local TimeTemperatureDewpointHumidityBarometerVisibilityWind DirectionWind SpeedGust SpeedPrecipitationEventsConditions
12:00 AM80.6 °F75.2 °F84 %29.89 in6.2 miWest (280°)8.1 mphPartly Cloudy
1:00 AM80.6 °F75.2 °F84 %29.86 inWest (270°)8.1 mphClear
2:00 AM80.6 °F75.2 °F84 %29.86 inWest (270°)6.9 mphClear
3:02 AM80.6 °F75.2 °F84 %29.86 inWest (270°)8.1 mphClear
4:00 AM80.6 °F75.2 °F84 %29.86 inWest (280°)8.1 mphClear
5:00 AM78.8 °F75.2 °F89 %29.86 inWest (270°)6.9 mphClear
6:00 AM78.8 °F75.2 °F89 %29.86 in6.2 miWest (280°)6.9 mphPartly Cloudy
7:00 AM80.6 °F75.2 °F84 %29.89 in6.2 miWNW (290°)6.9 mphPartly Cloudy
7:30 AM82.4 °F75.2 °F79 %29.92 in6.2 miWest (270°)8.1 mphPartly Cloudy
8:00 AM84.2 °F75.2 °F74 %29.92 in6.2 miWest (270°)9.2 mphPartly Cloudy
8:30 AM84.2 °F75.2 °F74 %29.92 inWest (260°)9.2 mphClear
9:00 AM88.0 °F76.0 °F59 %29.95 in9.0 miWSW (240°)2.3 mphScattered Clouds
9:00 AM86.0 °F75.2 °F70 %29.92 in6.2 miWSW (250°)8.1 mphPartly Cloudy
9:30 AM87.8 °F75.2 °F66 %29.92 in6.2 miVariable5.8 mphPartly Cloudy
9:58 AM89.6 °F75.2 °F62 %29.92 inSW (230°)8.1 mphClear
10:30 AM89.6 °F75.2 °F62 %29.92 in6.2 miSW (220°)8.1 mphPartly Cloudy
11:00 AM89.6 °F75.2 °F62 %29.92 in6.2 miSouth (190°)9.2 mphScattered Clouds
11:30 AM91.4 °F73.4 °F55 %29.92 in6.2 miSouth (170°)10.4 mphPartly Cloudy
11:58 AM91.4 °F73.4 °F55 %29.89 inSouth (180°)10.4 mphClear
12:26 PM91.4 °F73.4 °F55 %29.89 inSSE (160°)8.1 mphClear
2:30 PM89.6 °F75.2 °F62 %29.83 in6.2 miSE (140°)11.5 mphPartly Cloudy
3:00 PM90.0 °F74.0 °F51 %29.88 in9.0 miSSE (150°)15.0 mphScattered Clouds
3:00 PM89.6 °F77.0 °F66 %29.83 in6.2 miSouth (170°)11.5 mphPartly Cloudy
3:32 PM87.8 °F77.0 °F70 %29.83 inSE (130°)13.8 mphPartly Cloudy
4:00 PM87.8 °F77.0 °F70 %29.83 in6.2 miSSE (150°)11.5 mphPartly Cloudy
4:30 PM86.0 °F77.0 °F74 %29.86 in6.2 miSE (140°)9.2 mphPartly Cloudy
5:00 PM86.0 °F77.0 °F74 %29.86 in6.2 miESE (120°)5.8 mphPartly Cloudy
5:30 PM84.2 °F77.0 °F79 %29.89 in6.2 miSouth (170°)6.9 mphPartly Cloudy
6:00 PM84.2 °F77.0 °F79 %29.86 in6.2 miSouth (170°)11.5 mphPartly Cloudy
7:01 PM82.4 °F77.0 °F84 %29.89 in6.2 miSE (140°)11.5 mphPartly Cloudy
8:02 PM82.4 °F75.2 °F79 %29.92 in6.2 miSE (140°)12.7 mphPartly Cloudy
8:54 PM80.6 °F77.0 °F89 %29.92 in6.2 miSouth (190°)10.4 mphScattered Clouds
9:00 PM82.0 °F76.0 °F76 %29.93 in9.0 miSouth (190°)13.8 mphPartly Cloudy
Hourly data recorded from DGAA, located miles away from Accra, Ghana







STORIES FROM OUR PARTNERS